Simultaneous Nadir Overpasses (SNOs) Predictions

Prediction of SNOs between NOAA-21 and LANDSAT-8 Satellite Orbit:

Table of predicted SNOs for the next 14.0 days since TLE Epoch: 12/10/2022
Index Date (NOAA-21) Time (NOAA-21) Lat,Lon (NOAA-21) SZA (NOAA-21 ) Date (LANDSAT-8) Time (LANDSAT-8) Lat,Lon (LANDSAT-8) SZA (LANDSAT-8 ) Distance(km) Time Diff (sec)
1 12/11/2022 22:06:45 -70.13, 24.76 86.92 12/11/2022 22:07:26 -70.11, 24.70 86.94 2.87 41
2 12/11/2022 22:57:29 70.01,-167.75 92.96 12/11/2022 22:56:53 70.01,-167.80 92.97 1.77 36
3 12/11/2022 23:47:44 -69.01, 1.05 88.05 12/11/2022 23:46:38 -69.07, -1.43 87.96 98.97 66
4 12/14/2022 17:40:21 -70.66, 90.57 86.19 12/14/2022 17:41:31 -70.53, 91.76 86.33 45.96 70
5 12/14/2022 18:30:56 70.07,-101.21 93.22 12/14/2022 18:31:04 70.10,-101.23 93.24 3.18 8
6 12/14/2022 19:21:29 -70.02, 66.24 86.84 12/14/2022 19:20:34 -69.99, 66.25 86.87 2.98 55
7 12/17/2022 14:04:24 70.16, -34.69 93.44 12/17/2022 14:05:16 70.17, -34.69 93.44 1.20 52
8 12/17/2022 14:54:57 -70.08, 132.78 86.65 12/17/2022 14:54:46 -70.06, 132.79 86.67 2.64 11
9 12/17/2022 15:45:31 69.46, -58.99 92.72 12/17/2022 15:44:21 69.51, -60.32 92.79 52.49 70
10 12/20/2022 09:38:08 71.10, 30.42 94.48 12/20/2022 09:39:14 70.98, 32.97 94.31 93.20 66
11 12/20/2022 10:28:24 -70.11,-160.62 86.55 12/20/2022 10:28:58 -70.11,-160.69 86.55 2.60 34
12 12/20/2022 11:19:08 70.04, 6.80 93.39 12/20/2022 11:18:24 70.05, 6.87 93.40 2.97 44
13 12/23/2022 06:01:54 -70.37, -94.38 86.27 12/23/2022 06:03:06 -70.30, -93.97 86.36 17.07 72
14 12/23/2022 06:52:33 70.06, 73.41 93.41 12/23/2022 06:52:35 70.08, 73.35 93.43 2.86 2
15 12/23/2022 07:43:07 -69.99,-119.13 86.66 12/23/2022 07:42:05 -69.97,-119.16 86.68 2.31 62



Historial Predications of SNOs between NOAA-21 and LANDSAT-8
